星链-36494(STARLINK-36494)

导读 | 豆包AI

STARLINK-36494是美国太空探索技术公司星链星座的一颗卫星,于2026年1月4日发射。星链项目旨在构建全球卫星互联网星座,为全球偏远地区、海洋等网络覆盖薄弱区域提供高速互联网服务。该卫星入轨后,将进一步扩展星链星座的服务覆盖范围与网络容量,提升星座整体服务性能,推动全球互联基础设施建设。

基本信息
目录编号:
67331
目录名称:
STARLINK-36494
国际标识:
2026-002AC
轨道中心:
EARTH
卫星名称:
星链-36494
卫星全名:
星链-36494(STARLINK-36494)
卫星状态:
在轨 (已飞行69 天)
发射日期:
2026-01-04 UTC
国别 :
美国 (US)
星等 :
--
轨道信息
数据来源 国际轨道数据
星历时间: 2026-03-13T23:30:23+0800
10小时前
查看轨道信息
半长轴: 6861.152km
偏心率: 0.0001057
轨道倾角: 43.001°
近地点辐角 297.362°
升交点赤经 302.949°
平近点角 62.712°
近地点: 482.289km
远地点: 483.741km
周期: 94.266分钟
每日圈数: 15.275914
详细信息
固有亮度:
5
最大亮度:
2.5
卫星平台:
Starlink V1.0
覆盖范围:
全球
运营商:
太空探索技术公司
运营商所在国:
美国
制造商(研发单位):
太空探索技术公司
制造商所在国:
美国
使用方式:
暂无
卫星简介
Starlink 计划是 SpaceX 推出的全球卫星互联网项目,通过发射低轨道卫星,为全球尤其是偏远地区提供高速、低延迟的互联网服务。自 2019 年起,Starlink 已部署数千颗卫星,旨在缩小全球数字鸿沟,推动互联网普及。该项目还为军事、航空等行业提供通信支持,带来广泛经济效益。
2D轨道图
3D轨道图
轨道高度分析图
轨道倾角分析图
轨道综合分析图
查看轨道综合分析图